Date String (YYYY-MM-DD hh:mm:ss) UTC,Instrument flags,Ambient pressure (hPa),Sample flow (lpm),Bypass flow (lpm),Sample temperature (°C),Ambient temperature (°C),ASC tube jacket temperature (°C),LED temperature (°C),Box temperature (°C),Sample RH (%),Span deviation,Mass concentration (μg/m³),Mass concentration (μg/m³),Mass concentration (μg/m³)
DateTimeUTC,F1_M11,P_M11,Q1_M11,Q2_M11,T1_M11,T2_M11,T3_M11,T4_M11,T5_M11,U1_M11,ZSPAN_M11,X0_M11,X2_M11,X1_M11
2022-07-07 04:00:00,,0828.5,4.99,0.00,32.0,29.0,00.0,40.3,32.6,34.8,0000.0,0010.49,0004.73,0003.88
2022-07-07 04:01:00,,0828.5,5.00,0.00,32.0,29.1,00.0,40.3,32.6,35.0,0000.0,0010.57,0004.79,0003.90
2022-07-07 04:02:00,,0828.4,5.00,0.00,32.0,29.1,00.0,40.3,32.7,35.1,0000.0,0010.44,0004.77,0003.91
2022-07-07 04:03:00,,0828.4,4.99,0.00,32.1,29.2,00.0,40.3,32.8,34.8,0000.0,0010.55,0004.76,0003.91
2022-07-07 04:04:00,,0828.4,4.99,0.00,32.2,29.2,00.0,40.3,32.8,34.8,0000.0,0010.62,0004.79,0003.92
2022-07-07 04:05:00,,0828.3,5.00,0.00,32.2,29.2,00.0,40.3,32.8,34.9,0000.0,0010.63,0004.81,0003.93
2022-07-07 04:06:00,,0828.3,5.00,0.00,32.2,29.2,00.0,40.3,32.8,34.9,0000.0,0010.31,0004.86,0003.96
2022-07-07 04:07:00,,0828.3,5.00,0.00,32.2,28.5,00.0,40.2,32.7,34.9,0000.0,0010.28,0004.86,0003.98
2022-07-07 04:08:00,,0828.4,5.01,0.00,32.2,28.0,00.0,40.2,32.6,34.9,0000.0,0010.25,0004.83,0004.01
2022-07-07 04:09:00,,0828.4,5.00,0.00,32.1,27.8,00.0,40.2,32.5,35.1,0000.0,0010.04,0004.89,0004.04
2022-07-07 04:10:00,,0828.4,4.99,0.00,32.0,27.8,00.0,40.2,32.4,35.5,0000.0,0009.79,0004.88,0004.06
2022-07-07 04:11:00,,0828.5,5.01,0.00,32.2,27.9,00.0,40.2,32.6,35.2,0000.0,0009.94,0004.93,0004.07
2022-07-07 04:12:00,,0828.9,4.99,0.00,32.5,28.0,00.0,40.2,32.7,34.7,0000.0,0009.97,0004.93,0004.05
2022-07-07 04:13:00,,0828.7,5.00,0.00,32.6,28.2,00.0,40.2,32.7,34.4,0000.0,0010.57,0004.99,0004.05
2022-07-07 04:14:00,,0828.8,5.01,0.00,32.7,28.3,00.0,40.2,32.7,34.3,0000.0,0010.77,0005.05,0004.07
2022-07-07 04:15:00,,0829.1,5.00,0.00,32.7,28.4,00.0,40.3,32.7,34.3,0000.0,0010.86,0005.10,0004.09
2022-07-07 04:16:00,,0828.7,5.00,0.00,32.6,28.5,00.0,40.3,32.6,34.3,0000.0,0011.18,0005.13,0004.11
2022-07-07 04:17:00,,0828.7,5.01,0.00,32.6,28.6,00.0,40.4,32.6,34.4,0000.0,0011.38,0005.13,0004.12
2022-07-07 04:18:00,,0829.1,5.00,0.00,32.5,28.7,00.0,40.4,32.6,34.4,0000.0,0011.37,0005.16,0004.12
2022-07-07 04:19:00,,0829.0,5.00,0.00,32.5,28.8,00.0,40.4,32.6,34.5,0000.0,0011.31,0005.18,0004.11
2022-07-07 04:20:00,,0828.9,4.99,0.00,32.4,28.9,00.0,40.5,32.6,34.7,0000.0,0011.25,0005.16,0004.12
2022-07-07 04:21:00,,0828.9,5.00,0.00,32.4,28.9,00.0,40.5,32.7,34.9,0000.0,0011.43,0005.16,0004.13
2022-07-07 04:22:00,,0828.9,4.99,0.00,32.3,29.0,00.0,40.5,32.7,35.0,0000.0,0011.53,0005.15,0004.16
2022-07-07 04:23:00,,0829.0,5.00,0.00,32.4,29.0,00.0,40.5,32.8,34.8,0000.0,0011.46,0005.18,0004.22
2022-07-07 04:24:00,,0829.0,5.01,0.00,32.4,29.1,00.0,40.5,32.8,34.8,0000.0,0011.05,0005.18,0004.26
2022-07-07 04:25:00,,0829.0,5.00,0.00,32.4,29.1,00.0,40.5,32.8,34.8,0000.0,0010.84,0005.20,0004.31
2022-07-07 04:26:00,,0829.0,4.99,0.00,32.4,29.2,00.0,40.5,32.8,34.9,0000.0,0010.82,0005.26,0004.36
2022-07-07 04:27:00,,0828.9,5.01,0.00,32.4,29.2,00.0,40.6,32.8,35.0,0000.0,0010.68,0005.30,0004.39
2022-07-07 04:28:00,,0829.0,4.99,0.00,32.4,29.2,00.0,40.6,32.9,34.7,0000.0,0010.86,0005.31,0004.41
2022-07-07 04:29:00,,0829.0,5.00,0.00,32.5,28.8,00.0,40.5,32.9,34.5,0000.0,0011.00,0005.35,0004.44
2022-07-07 04:30:00,,0829.0,5.00,0.00,32.5,28.1,00.0,40.4,32.8,34.4,0000.0,0011.11,0005.41,0004.48
2022-07-07 04:31:00,,0829.0,4.99,0.00,32.4,27.8,00.0,40.4,32.6,34.3,0000.0,0011.16,0005.42,0004.49
2022-07-07 04:32:00,,0829.0,5.00,0.00,32.2,27.8,00.0,40.4,32.5,34.0,0000.0,0010.99,0005.40,0004.47
2022-07-07 04:33:00,,0829.0,5.01,0.00,32.1,27.9,00.0,40.4,32.4,34.4,0000.1,0011.16,0005.38,0004.45
2022-07-07 04:34:00,,0829.0,4.99,0.00,32.0,28.0,00.0,40.4,32.4,34.4,0000.2,0011.30,0005.36,0004.44
2022-07-07 04:35:00,,0829.1,5.00,0.00,31.9,28.1,00.0,40.3,32.4,34.3,0000.0,0011.29,0005.35,0004.41
2022-07-07 04:36:00,,0829.0,4.99,0.00,31.8,28.2,00.0,40.3,32.4,34.3,0000.0,0011.35,0005.30,0004.37
2022-07-07 04:37:00,,0829.1,4.98,0.00,31.8,28.4,00.0,40.3,32.4,34.2,0000.0,0011.36,0005.17,0004.31
2022-07-07 04:38:00,,0829.1,5.00,0.00,31.7,28.5,00.0,40.2,32.4,34.3,0000.0,0011.59,0005.04,0004.26
2022-07-07 04:39:00,,0829.2,5.01,0.00,31.6,28.6,00.0,40.2,32.4,34.4,0000.0,0011.43,0004.99,0004.22
2022-07-07 04:40:00,,0829.2,5.01,0.00,31.6,28.7,00.0,40.2,32.4,34.0,0000.0,0011.07,0004.90,0004.16
2022-07-07 04:41:00,,0829.2,4.99,0.00,31.6,28.8,00.0,40.2,32.4,34.1,0000.0,0010.95,0004.81,0004.11
2022-07-07 04:42:00,,0829.2,5.01,0.00,31.5,28.8,00.0,40.1,32.4,34.2,0000.0,0010.66,0004.69,0004.05
2022-07-07 04:43:00,,0829.1,5.01,0.00,31.5,28.9,00.0,40.1,32.4,33.5,0000.0,0010.51,0004.62,0004.01
2022-07-07 04:44:00,,0829.1,4.99,0.00,31.5,28.9,00.0,40.1,32.5,33.5,0000.0,0010.10,0004.56,0003.96
2022-07-07 04:45:00,,0829.1,5.01,0.00,31.4,29.0,00.0,40.1,32.5,33.6,0000.0,0009.70,0004.52,0003.92
2022-07-07 04:46:00,,0829.1,5.00,0.00,31.4,29.0,00.0,40.1,32.5,33.4,0000.0,0009.60,0004.46,0003.88
2022-07-07 04:47:00,,0829.1,5.00,0.00,31.4,29.1,00.0,40.0,32.5,32.6,0000.0,0009.22,0004.37,0003.84
2022-07-07 04:48:00,,0829.1,5.00,0.00,31.4,29.1,00.0,40.0,32.5,32.2,0000.0,0009.02,0004.35,0003.79
2022-07-07 04:49:00,,0829.1,5.00,0.00,31.3,29.2,00.0,40.0,32.5,31.9,0000.0,0008.77,0004.32,0003.74
2022-07-07 04:50:00,,0829.1,5.00,0.00,31.3,29.2,00.0,40.0,32.5,31.6,0000.0,0007.95,0004.23,0003.67
2022-07-07 04:51:00,,0829.1,5.00,0.00,31.3,29.2,00.0,40.0,32.6,31.6,0000.0,0007.71,0004.12,0003.61
2022-07-07 04:52:00,,0829.1,5.01,0.00,31.3,29.3,00.0,40.0,32.6,31.4,0000.0,0007.46,0004.02,0003.56
2022-07-07 04:53:00,,0829.1,5.01,0.00,31.3,29.3,00.0,40.0,32.6,31.4,0000.0,0007.28,0003.95,0003.48
2022-07-07 04:54:00,,0829.1,5.00,0.00,31.3,28.8,00.0,39.9,32.5,31.2,0000.0,0007.03,0003.87,0003.42
2022-07-07 04:55:00,,0829.0,5.00,0.00,31.2,28.1,00.0,39.8,32.4,31.6,0000.0,0006.82,0003.84,0003.39
2022-07-07 04:56:00,,0829.0,4.99,0.00,31.2,27.7,00.0,39.8,32.3,32.4,0000.0,0006.54,0003.77,0003.36
2022-07-07 04:57:00,,0829.0,5.01,0.00,31.0,27.7,00.0,39.7,32.2,34.1,0000.0,0006.38,0003.75,0003.37
2022-07-07 04:58:00,,0829.0,4.99,0.00,30.9,27.8,00.0,39.7,32.1,34.5,0000.0,0006.43,0003.78,0003.40
2022-07-07 04:59:00,,0829.0,5.00,0.00,30.8,27.9,00.0,39.6,32.1,34.4,0000.0,0006.61,0003.83,0003.45
